Location: Recife
(8.0585°S, 34.8848°W)
Time: 09:44:46
(UTC-03:00)

Transit 2A - Pass Details

Date: 15 April 2026
Orbit: 594 x 950 km, 66.7° (Epoch: 19 May)

Event Time Altitude Azimuth Distance (km) Brightness Sun altitude
Rises 21:38:39 0° 235° (SW) 3,476 - -65.0°
Reaches altitude 10° 21:42:21 10° 258° (WSW) 2,590 - -65.9°
Maximum altitude 21:45:26 14° 289° (WNW) 2,322 - -66.7°
Drops below altitude 10° 21:48:35 10° 320° (NW) 2,645 - -67.5°
Sets 21:52:29 0° 343° (NNW) 3,600 - -68.4°
